{"data":{"norad_id":68016,"intl_designator":"2026-040B","name":"STARLINK-36923","alt_names":[],"object_type":"PAYLOAD","status":"ACTIVE","operator":null,"country":"US","launch_date":"2026-03-01","launch_site_code":"AFWTR","launch_vehicle":null,"mission":null,"orbit_class":"UNKNOWN","rcs_meters":null,"size_class":null,"mass_kg":null,"dimensions":null,"purposes":["comms"],"wikipedia_slug":null,"has_3d_model":false,"image_url":null,"decayed_at":null,"tle_current":{"epoch":"2026-09-20T02:38:07.888128Z","epoch_age_seconds":93372,"freshness":"FRESH","line1":"1 68016U 26040B   26263.10981352  .00023023  00000+0  71297-3 0  9999","line2":"2 68016  97.2846 210.3865 0002139 283.4536  76.6468 15.33458829 31256","mean_motion":15.33458829,"eccentricity":0.0002139,"inclination_deg":97.2846,"raan_deg":210.3865,"arg_perigee_deg":283.4536,"mean_anomaly_deg":76.6468,"bstar":0.00071297,"rev_number":3125,"period_min":93.905357794252,"perigee_km":464.03817502448,"apogee_km":466.96588380127,"semimajor_km":6843.6390294129,"source":"CELESTRAK","updated_at":"2026-09-20T09:00:43.741320Z"}}}